EW5923 Weather Reports


time (UTC)temp
C
wind
direction
speed
KPH
gust
KPH
rain 1hr
cm
rain 24hr
cm
rain mn
cm
humidity
%
barometer
mb
20260507161122 25 357 6.4 9.7 0.00 0.00 0.00 21 1013.3
20260507160122 25 357 6.4 12.9 0.00 0.00 0.00 22 1013.3
20260507155122 25 359 8.0 12.9 0.00 0.00 0.00 23 1013.2
20260507154122 24 358 8.0 9.7 0.00 0.00 0.00 24 1013.4
20260507153122 24 0 6.4 12.9 0.00 0.00 0.00 25 1013.4
20260507152122 23 2 6.4 11.3 0.00 0.00 0.00 26 1013.4
20260507151122 23 3 8.0 12.9 0.00 0.00 0.00 28 1013.5
20260507150122 22 5 8.0 12.9 0.00 0.00 0.00 29 1013.4
20260507145122 22 0 8.0 12.9 0.00 0.00 0.00 29 1013.4
20260507144143 22 360 8.0 12.9 0.00 0.00 0.00 29 1013.3
20260507143122 23 16 6.4 14.5 0.00 0.00 0.00 26 1013.3
20260507142122 25 10 6.4 14.5 0.00 0.00 0.00 21 1013.3
20260507141122 22 2 4.8 9.7 0.00 0.00 0.00 29 1013.3
20260507140121 24 6 6.4 12.9 0.00 0.00 0.00 23 1013.3
20260507135121 22 31 6.4 16.1 0.00 0.00 0.00 27 1013.2
20260507134121 20 360 1.6 3.2 0.00 0.00 0.00 32 1013.0
20260507133121 20 26 1.6 3.2 0.00 0.00 0.00 32 1012.9
20260507132121 20 10 4.8 8.0 0.00 0.00 0.00 31 1012.9
20260507131121 20 6 3.2 6.4 0.00 0.00 0.00 30 1012.8
20260507130121 20 1 4.8 8.0 0.00 0.00 0.00 30 1012.8
20260507125142 21 0 8.0 12.9 0.00 0.00 0.00 28 1012.7
20260507124121 21 4 8.0 14.5 0.00 0.00 0.00 28 1012.7
20260507123121 20 3 8.0 17.7 0.00 0.00 0.00 29 1012.5
20260507122121 20 2 8.0 12.9 0.00 0.00 0.00 29 1012.6
20260507121121 21 0 8.0 12.9 0.00 0.00 0.00 29 1012.6
20260507120121 20 1 8.0 14.5 0.00 0.00 0.00 30 1012.6
20260507115142 20 2 9.7 14.5 0.00 0.00 0.00 30 1012.7
20260507114121 21 2 9.7 14.5 0.00 0.00 0.00 29 1012.6
20260507113121 21 360 9.7 16.1 0.00 0.00 0.00 28 1012.7
20260507112121 22 3 12.9 22.5 0.00 0.00 0.00 27 1012.8
20260507111142 21 3 11.3 19.3 0.00 0.00 0.00 28 1012.7
20260507110121 21 7 6.4 9.7 0.00 0.00 0.00 28 1012.8
20260507105121 20 8 6.4 12.9 0.00 0.00 0.00 29 1012.9
20260507104121 21 3 4.8 6.4 0.00 0.00 0.00 28 1012.9
20260507103121 21 4 6.4 9.7 0.00 0.00 0.00 27 1013.0
20260507102121 21 1 8.0 12.9 0.00 0.00 0.00 28 1013.1
20260507101121 19 3 8.0 12.9 0.00 0.00 0.00 30 1013.1
20260507100121 18 3 8.0 12.9 0.00 0.00 0.00 31 1013.3
20260507095121 19 3 6.4 9.7 0.00 0.00 0.00 30 1013.4
20260507094122 19 4 8.0 9.7 0.00 0.00 0.00 30 1013.4
20260507093143 18 7 8.0 11.3 0.00 0.00 0.00 32 1013.5
20260507092121 16 10 3.2 6.4 0.00 0.00 0.00 36 1013.7
20260507091121 16 9 1.6 4.8 0.00 0.00 0.00 35 1013.7
20260507090121 16 9 0.0 3.2 0.00 0.00 0.00 36 1013.7
20260507085121 17 9 0.0 0.0 0.00 0.00 0.00 35 1013.8
20260507084121 17 9 0.0 0.0 0.00 0.00 0.00 34 1013.9
20260507083121 17 9 3.2 4.8 0.00 0.00 0.00 34 1014.0
20260507082121 17 12 3.2 4.8 0.00 0.00 0.00 34 1014.1
20260507081121 18 10 1.6 3.2 0.00 0.00 0.00 33 1014.2
20260507080142 18 9 0.0 1.6 0.00 0.00 0.00 32 1014.3
20260507075121 19 5 3.2 4.8 0.00 0.00 0.00 31 1014.3
20260507074122 18 5 4.8 6.4 0.00 0.00 0.00 32 1014.3
20260507073121 18 1 4.8 6.4 0.00 0.00 0.00 31 1014.3
20260507072143 19 360 3.2 4.8 0.00 0.00 0.00 30 1014.3
20260507071121 20 357 4.8 6.4 0.00 0.00 0.00 29 1014.2
20260507070121 20 351 4.8 6.4 0.00 0.00 0.00 29 1014.3
20260507065121 20 358 4.8 6.4 0.00 0.00 0.00 28 1014.3
20260507064121 21 355 4.8 6.4 0.00 0.00 0.00 28 1014.3
20260507063121 20 358 4.8 6.4 0.00 0.00 0.00 28 1014.3
20260507062142 19 353 4.8 8.0 0.00 0.00 0.00 31 1014.2
20260507061121 18 360 4.8 4.8 0.00 0.00 0.00 31 1014.3
20260507060121 18 354 3.2 4.8 0.00 0.00 0.00 31 1014.3
20260507055121 19 335 1.6 3.2 0.00 0.00 0.00 30 1014.4
20260507054121 20 347 3.2 4.8 0.00 0.00 0.00 28 1014.3
20260507053121 20 352 6.4 8.0 0.00 0.00 0.00 29 1014.3
20260507052121 19 360 4.8 6.4 0.00 0.00 0.00 30 1014.3
20260507051121 19 360 3.2 4.8 0.00 0.00 0.00 30 1014.3
20260507050142 19 360 3.2 3.2 0.00 0.00 0.00 30 1014.3
20260507045121 19 360 1.6 3.2 0.00 0.00 0.00 29 1014.2
20260507044121 20 360 0.0 0.0 0.00 0.00 0.00 29 1014.2
20260507043121 20 360 1.6 3.2 0.00 0.00 0.00 28 1014.1
20260507042121 20 357 3.2 4.8 0.00 0.00 0.00 28 1014.0
20260507041121 20 360 3.2 4.8 0.00 0.00 0.00 27 1013.8
20260507040142 21 360 3.2 4.8 0.00 0.00 0.00 27 1013.7
20260507035122 21 348 3.2 4.8 0.00 0.00 0.00 27 1013.6
20260507034121 22 360 0.0 3.2 0.00 0.00 0.00 27 1013.5
20260507033121 23 360 0.0 3.2 0.00 0.00 0.00 25 1013.4
20260507032122 23 323 1.6 3.2 0.00 0.00 0.00 24 1013.2
20260507031142 24 328 3.2 4.8 0.00 0.00 0.00 23 1013.2
20260507030142 25 335 3.2 4.8 0.00 0.00 0.00 23 1013.0
20260507025121 25 350 3.2 6.4 0.00 0.00 0.00 23 1012.9
20260507024121 25 294 4.8 6.4 0.00 0.00 0.00 22 1012.8
20260507023121 25 357 4.8 9.7 0.00 0.00 0.00 22 1012.7
20260507022142 26 360 3.2 4.8 0.00 0.00 0.00 22 1012.6
20260507021121 26 360 4.8 9.7 0.00 0.00 0.00 22 1012.4
20260507020121 26 360 4.8 8.0 0.00 0.00 0.00 22 1012.6
20260507015122 26 352 8.0 12.9 0.00 0.00 0.00 21 1012.6
20260507014121 26 360 6.4 16.1 0.00 0.00 0.00 21 1012.4
20260507013122 26 359 8.0 9.7 0.00 0.00 0.00 21 1012.5
20260507012121 27 357 8.0 16.1 0.00 0.00 0.00 21 1012.4
20260507011121 27 359 6.4 11.3 0.00 0.00 0.00 21 1012.4
20260507010123 27 356 8.0 16.1 0.00 0.00 0.00 21 1012.4
20260507005121 27 352 9.7 16.1 0.00 0.00 0.00 21 1012.4
20260507004121 27 353 8.0 16.1 0.00 0.00 0.00 21 1012.5
20260507003142 27 354 8.0 14.5 0.00 0.00 0.00 21 1012.4
20260507002123 26 359 6.4 14.5 0.00 0.00 0.00 21 1012.4
20260507001121 27 360 6.4 11.3 0.00 0.00 0.00 21 1012.4
20260507000121 27 358 6.4 14.5 0.00 0.00 0.00 21 1012.4
20260506235144 27 356 11.3 19.3 0.00 0.00 0.00 20 1012.4
20260506234122 27 353 6.4 14.5 0.00 0.00 0.00 20 1012.5
20260506233121 27 356 14.5 22.5 0.00 0.00 0.00 20 1012.5
20260506232121 27 355 6.4 14.5 0.00 0.00 0.00 21 1012.6
20260506231121 27 356 11.3 20.9 0.00 0.00 0.00 21 1012.7
20260506230121 27 358 11.3 17.7 0.00 0.00 0.00 21 1012.6
20260506225121 27 356 9.7 16.1 0.00 0.00 0.00 20 1012.7
20260506224121 26 359 8.0 17.7 0.00 0.00 0.00 21 1013.0
20260506223121 27 356 11.3 20.9 0.00 0.00 0.00 21 1013.1
20260506222123 26 355 6.4 14.5 0.00 0.00 0.00 21 1013.2
20260506221121 27 356 14.5 22.5 0.00 0.00 0.00 21 1013.3
20260506220143 26 359 11.3 19.3 0.00 0.00 0.00 21 1013.5
20260506215122 26 352 9.7 20.9 0.00 0.00 0.00 21 1013.5
20260506214123 26 358 11.3 17.7 0.00 0.00 0.00 21 1013.7
20260506213122 27 358 9.7 20.9 0.00 0.00 0.00 21 1013.9
20260506212121 26 358 9.7 20.9 0.00 0.00 0.00 22 1014.0
20260506211143 26 359 9.7 19.3 0.00 0.00 0.00 22 1014.2
20260506210121 26 359 11.3 17.7 0.00 0.00 0.00 22 1014.3
20260506205122 25 357 8.0 16.1 0.00 0.00 0.00 22 1014.4
20260506204121 26 360 14.5 22.5 0.00 0.00 0.00 22 1014.6
20260506203122 26 359 12.9 20.9 0.00 0.00 0.00 22 1014.7
20260506202123 25 358 6.4 16.1 0.00 0.00 0.00 23 1014.7
20260506201122 25 355 11.3 17.7 0.00 0.00 0.00 23 1014.8
20260506200122 25 5 6.4 14.5 0.00 0.00 0.00 23 1014.9
20260506195146 25 360 4.8 16.1 0.00 0.00 0.00 24 1015.1
20260506194143 25 359 12.9 22.5 0.00 0.00 0.00 24 1015.2
20260506193121 25 18 4.8 9.7 0.00 0.00 0.00 24 1015.2
20260506192122 24 360 9.7 16.1 0.00 0.00 0.00 25 1015.5
20260506191121 24 355 9.7 16.1 0.00 0.00 0.00 25 1015.4
20260506190143 24 357 8.0 16.1 0.00 0.00 0.00 26 1015.5
20260506185142 24 2 12.9 25.7 0.00 0.00 0.00 26 1015.6
20260506184121 23 357 9.7 19.3 0.00 0.00 0.00 27 1015.6
20260506183122 23 351 8.0 14.5 0.00 0.00 0.00 27 1015.7
20260506182122 23 354 11.3 17.7 0.00 0.00 0.00 27 1015.9
20260506181122 23 359 6.4 12.9 0.00 0.00 0.00 28 1015.8
20260506180122 23 359 9.7 19.3 0.00 0.00 0.00 28 1016.0
20260506175122 22 351 6.4 9.7 0.00 0.00 0.00 30 1016.1
20260506174122 22 357 8.0 14.5 0.00 0.00 0.00 30 1016.2
20260506173125 22 352 8.0 14.5 0.00 0.00 0.00 30 1016.2
20260506172122 21 299 4.8 12.9 0.00 0.00 0.00 32 1016.1
20260506171121 22 345 6.4 12.9 0.00 0.00 0.00 31 1016.2
20260506170122 21 355 4.8 12.9 0.00 0.00 0.00 33 1016.1
20260506165121 21 354 8.0 16.1 0.00 0.00 0.00 33 1016.1
20260506164439 21 351 6.4 12.9 0.00 0.00 0.00 33 1016.1
20260506162142 20 347 3.2 14.5 0.00 0.00 0.00 34 1015.9